Year,Month,Day,Hour,Minute,Value (Times are PST for temperature in C)
2010,07,09,00,00,20.60
2010,07,09,00,01,20.60
2010,07,09,00,02,20.50
2010,07,09,00,03,20.50
2010,07,09,00,04,20.40
2010,07,09,00,05,20.40
2010,07,09,00,06,20.30
2010,07,09,00,07,20.30
2010,07,09,00,08,20.20
2010,07,09,00,09,20.20
2010,07,09,00,10,20.20
2010,07,09,00,11,20.30
2010,07,09,00,12,20.30
2010,07,09,00,13,20.40
2010,07,09,00,14,20.40
2010,07,09,00,15,20.50
2010,07,09,00,16,20.50
2010,07,09,00,17,20.60
2010,07,09,00,18,20.60
2010,07,09,00,19,20.60
2010,07,09,00,20,20.70
2010,07,09,00,21,20.70
2010,07,09,00,22,20.70
2010,07,09,00,23,20.70
2010,07,09,00,24,20.80
2010,07,09,00,25,20.80
2010,07,09,00,26,20.80
2010,07,09,00,27,20.80
2010,07,09,00,28,20.80
2010,07,09,00,29,20.80
2010,07,09,00,30,20.80
2010,07,09,00,31,20.80
2010,07,09,00,32,20.70
2010,07,09,00,33,20.70
2010,07,09,00,34,20.70
2010,07,09,00,35,20.70
2010,07,09,00,36,20.60
2010,07,09,00,37,20.60
2010,07,09,00,38,20.50
2010,07,09,00,39,20.50
2010,07,09,00,40,20.40
2010,07,09,00,41,20.40
2010,07,09,00,42,20.30
2010,07,09,00,43,20.20
2010,07,09,00,44,20.20
2010,07,09,00,45,20.20
2010,07,09,00,46,20.10
2010,07,09,00,47,20.00
2010,07,09,00,48,19.90
2010,07,09,00,49,19.90
2010,07,09,00,50,19.90
2010,07,09,00,51,19.90
2010,07,09,00,52,19.80
2010,07,09,00,53,19.80
2010,07,09,00,54,19.80
2010,07,09,00,55,19.70
2010,07,09,00,56,19.70
2010,07,09,00,57,19.70
2010,07,09,00,58,19.70
2010,07,09,00,59,19.70
2010,07,09,01,00,19.60
2010,07,09,01,01,19.60
2010,07,09,01,02,19.60
2010,07,09,01,03,19.60
2010,07,09,01,04,19.50
2010,07,09,01,05,19.50
2010,07,09,01,06,19.50
2010,07,09,01,07,19.50
2010,07,09,01,08,19.50
2010,07,09,01,09,19.50
2010,07,09,01,10,19.40
2010,07,09,01,11,19.40
2010,07,09,01,12,19.40
2010,07,09,01,13,19.30
2010,07,09,01,14,19.30
2010,07,09,01,15,19.30
2010,07,09,01,16,19.30
2010,07,09,01,17,19.30
2010,07,09,01,18,19.30
2010,07,09,01,19,19.20
2010,07,09,01,20,19.20
2010,07,09,01,21,19.10
2010,07,09,01,22,19.10
2010,07,09,01,23,19.10
2010,07,09,01,24,19.10
2010,07,09,01,25,19.10
2010,07,09,01,26,19.10
2010,07,09,01,27,19.10
2010,07,09,01,28,19.10
2010,07,09,01,29,19.10
2010,07,09,01,30,19.10
2010,07,09,01,31,19.10
2010,07,09,01,32,19.10
2010,07,09,01,33,19.10
2010,07,09,01,34,19.10
2010,07,09,01,35,19.10
2010,07,09,01,36,19.10
2010,07,09,01,37,19.10
2010,07,09,01,38,19.10
2010,07,09,01,39,19.10
2010,07,09,01,40,19.10
2010,07,09,01,41,19.10
2010,07,09,01,42,19.10
2010,07,09,01,43,19.10
2010,07,09,01,44,19.10
2010,07,09,01,45,19.00
2010,07,09,01,46,18.90
2010,07,09,01,47,18.90
2010,07,09,01,48,18.90
2010,07,09,01,49,18.90
2010,07,09,01,50,18.90
2010,07,09,01,51,18.90
2010,07,09,01,52,18.90
2010,07,09,01,53,18.90
2010,07,09,01,54,18.90
2010,07,09,01,55,18.90
2010,07,09,01,56,18.90
2010,07,09,01,57,18.90
2010,07,09,01,58,18.90
2010,07,09,01,59,18.90
2010,07,09,02,00,18.80
2010,07,09,02,01,18.80
2010,07,09,02,02,18.80
2010,07,09,02,03,18.80
2010,07,09,02,04,18.70
2010,07,09,02,05,18.70
2010,07,09,02,06,18.70
2010,07,09,02,07,18.70
2010,07,09,02,08,18.70
2010,07,09,02,09,18.70
2010,07,09,02,10,18.70
2010,07,09,02,11,18.70
2010,07,09,02,12,18.80
2010,07,09,02,13,18.80
2010,07,09,02,14,18.90
2010,07,09,02,15,18.90
2010,07,09,02,16,18.90
2010,07,09,02,17,19.00
2010,07,09,02,18,19.10
2010,07,09,02,19,19.10
2010,07,09,02,20,19.10
2010,07,09,02,21,19.10
2010,07,09,02,22,19.10
2010,07,09,02,23,19.10
2010,07,09,02,24,19.00
2010,07,09,02,25,18.90
2010,07,09,02,26,18.80
2010,07,09,02,27,18.70
2010,07,09,02,28,18.60
2010,07,09,02,29,18.50
2010,07,09,02,30,18.40
2010,07,09,02,31,18.40
2010,07,09,02,32,18.40
2010,07,09,02,33,18.30
2010,07,09,02,34,18.40
2010,07,09,02,35,18.40
2010,07,09,02,36,18.40
2010,07,09,02,37,18.40
2010,07,09,02,38,18.40
2010,07,09,02,39,18.40
2010,07,09,02,40,18.50
2010,07,09,02,41,18.50
2010,07,09,02,42,18.50
2010,07,09,02,43,18.60
2010,07,09,02,44,18.60
2010,07,09,02,45,18.70
2010,07,09,02,46,18.70
2010,07,09,02,47,18.70
2010,07,09,02,48,18.70
2010,07,09,02,49,18.80
2010,07,09,02,50,18.80
2010,07,09,02,51,18.80
2010,07,09,02,52,18.80
2010,07,09,02,53,18.80
2010,07,09,02,54,18.80
2010,07,09,02,55,18.80
2010,07,09,02,56,18.90
2010,07,09,02,57,18.90
2010,07,09,02,58,18.90
2010,07,09,02,59,18.90
2010,07,09,03,00,19.00
2010,07,09,03,01,19.10
2010,07,09,03,02,19.30
2010,07,09,03,03,19.60
2010,07,09,03,04,19.70
2010,07,09,03,05,19.90
2010,07,09,03,06,20.00
2010,07,09,03,07,20.10
2010,07,09,03,08,20.20
2010,07,09,03,09,20.10
2010,07,09,03,10,20.10
2010,07,09,03,11,20.10
2010,07,09,03,12,20.00
2010,07,09,03,13,19.90
2010,07,09,03,14,19.90
2010,07,09,03,15,19.90
2010,07,09,03,16,19.90
2010,07,09,03,17,19.80
2010,07,09,03,18,19.80
2010,07,09,03,19,19.80
2010,07,09,03,20,19.70
2010,07,09,03,21,19.70
2010,07,09,03,22,19.70
2010,07,09,03,23,19.70
2010,07,09,03,24,19.60
2010,07,09,03,25,19.60
2010,07,09,03,26,19.60
2010,07,09,03,27,19.50
2010,07,09,03,28,19.50
2010,07,09,03,29,19.50
2010,07,09,03,30,19.50
2010,07,09,03,31,19.50
2010,07,09,03,32,19.50
2010,07,09,03,33,19.50
2010,07,09,03,34,19.50
2010,07,09,03,35,19.60
2010,07,09,03,36,19.60
2010,07,09,03,37,19.70
2010,07,09,03,38,19.70
2010,07,09,03,39,19.70
2010,07,09,03,40,19.80
2010,07,09,03,41,19.80
2010,07,09,03,42,19.80
2010,07,09,03,43,19.80
2010,07,09,03,44,19.80
2010,07,09,03,45,19.80
2010,07,09,03,46,19.70
2010,07,09,03,47,19.70
2010,07,09,03,48,19.70
2010,07,09,03,49,19.70
2010,07,09,03,50,19.70
2010,07,09,03,51,19.70
2010,07,09,03,52,19.70
2010,07,09,03,53,19.70
2010,07,09,03,54,19.70
2010,07,09,03,55,19.60
2010,07,09,03,56,19.60
2010,07,09,03,57,19.60
2010,07,09,03,58,19.60
2010,07,09,03,59,19.60
2010,07,09,04,00,19.60
2010,07,09,04,01,19.50
2010,07,09,04,02,19.50
2010,07,09,04,03,19.50
2010,07,09,04,04,19.50
2010,07,09,04,05,19.40
2010,07,09,04,06,19.40
2010,07,09,04,07,19.40
2010,07,09,04,08,19.40
2010,07,09,04,09,19.40
2010,07,09,04,10,19.30
2010,07,09,04,11,19.30
2010,07,09,04,12,19.30
2010,07,09,04,13,19.30
2010,07,09,04,14,19.30
2010,07,09,04,15,19.30
2010,07,09,04,16,19.30
2010,07,09,04,17,19.30
2010,07,09,04,18,19.30
2010,07,09,04,19,19.20
2010,07,09,04,20,19.20
2010,07,09,04,21,19.20
2010,07,09,04,22,19.10
2010,07,09,04,23,19.10
2010,07,09,04,24,19.10
2010,07,09,04,25,19.10
2010,07,09,04,26,19.10
2010,07,09,04,27,19.00
2010,07,09,04,28,18.90
2010,07,09,04,29,18.90
2010,07,09,04,30,18.90
2010,07,09,04,31,18.90
2010,07,09,04,32,18.80
2010,07,09,04,33,18.70
2010,07,09,04,34,18.60
2010,07,09,04,35,18.50
2010,07,09,04,36,18.30
2010,07,09,04,37,18.10
2010,07,09,04,38,17.80
2010,07,09,04,39,17.50
2010,07,09,04,40,17.30
2010,07,09,04,41,17.10
2010,07,09,04,42,16.90
2010,07,09,04,43,16.80
2010,07,09,04,44,16.60
2010,07,09,04,45,16.50
2010,07,09,04,46,16.40
2010,07,09,04,47,16.30
2010,07,09,04,48,16.30
2010,07,09,04,49,16.20
2010,07,09,04,50,16.10
2010,07,09,04,51,16.10
2010,07,09,04,52,16.10
2010,07,09,04,53,16.00
2010,07,09,04,54,15.90
2010,07,09,04,55,15.80
2010,07,09,04,56,15.80
2010,07,09,04,57,15.80
2010,07,09,04,58,15.80
2010,07,09,04,59,15.80
2010,07,09,05,00,15.80
2010,07,09,05,01,15.70
2010,07,09,05,02,15.70
2010,07,09,05,03,15.70
2010,07,09,05,04,15.70
2010,07,09,05,05,15.70
2010,07,09,05,06,15.70
2010,07,09,05,07,15.70
2010,07,09,05,08,15.60
2010,07,09,05,09,15.60
2010,07,09,05,10,15.60
2010,07,09,05,11,15.60
2010,07,09,05,12,15.60
2010,07,09,05,13,15.60
2010,07,09,05,14,15.60
2010,07,09,05,15,15.60
2010,07,09,05,16,15.50
2010,07,09,05,17,15.50
2010,07,09,05,18,15.50
2010,07,09,05,19,15.50
2010,07,09,05,20,15.40
2010,07,09,05,21,15.40
2010,07,09,05,22,15.40
2010,07,09,05,23,15.40
2010,07,09,05,24,15.30
2010,07,09,05,25,15.30
2010,07,09,05,26,15.30
2010,07,09,05,27,15.20
2010,07,09,05,28,15.10
2010,07,09,05,29,15.10
2010,07,09,05,30,15.00
2010,07,09,05,31,14.90
2010,07,09,05,32,14.80
2010,07,09,05,33,14.80
2010,07,09,05,34,14.70
2010,07,09,05,35,14.70
2010,07,09,05,36,14.60
2010,07,09,05,37,14.60
2010,07,09,05,38,14.60
2010,07,09,05,39,14.60
2010,07,09,05,40,14.50
2010,07,09,05,41,14.50
2010,07,09,05,42,14.50
2010,07,09,05,43,14.50
2010,07,09,05,44,14.50
2010,07,09,05,45,14.50
2010,07,09,05,46,14.50
2010,07,09,05,47,14.50
2010,07,09,05,48,14.50
2010,07,09,05,49,14.50
2010,07,09,05,50,14.50
2010,07,09,05,51,14.50
2010,07,09,05,52,14.60
2010,07,09,05,53,14.60
2010,07,09,05,54,14.60
2010,07,09,05,55,14.60
2010,07,09,05,56,14.70
2010,07,09,05,57,14.70
2010,07,09,05,58,14.80
2010,07,09,05,59,14.80
2010,07,09,06,00,14.80
2010,07,09,06,01,14.90
2010,07,09,06,02,15.00
2010,07,09,06,03,15.10
2010,07,09,06,04,15.20
2010,07,09,06,05,15.30
2010,07,09,06,06,15.30
2010,07,09,06,07,15.40
2010,07,09,06,08,15.50
2010,07,09,06,09,15.60
2010,07,09,06,10,15.80
2010,07,09,06,11,15.80
2010,07,09,06,12,15.90
2010,07,09,06,13,16.10
2010,07,09,06,14,16.10
2010,07,09,06,15,16.10
2010,07,09,06,16,16.20
2010,07,09,06,17,16.20
2010,07,09,06,18,16.20
2010,07,09,06,19,16.30
2010,07,09,06,20,16.30
2010,07,09,06,21,16.30
2010,07,09,06,22,16.30
2010,07,09,06,23,16.40
2010,07,09,06,24,16.40
2010,07,09,06,25,16.40
2010,07,09,06,26,16.40
2010,07,09,06,27,16.60
2010,07,09,06,28,16.60
2010,07,09,06,29,16.70
2010,07,09,06,30,16.70
2010,07,09,06,31,16.80
2010,07,09,06,32,16.90
2010,07,09,06,33,16.90
2010,07,09,06,34,17.00
2010,07,09,06,35,17.00
2010,07,09,06,36,17.10
2010,07,09,06,37,17.10
2010,07,09,06,38,17.10
2010,07,09,06,39,17.20
2010,07,09,06,40,17.20
2010,07,09,06,41,17.30
2010,07,09,06,42,17.30
2010,07,09,06,43,17.30
2010,07,09,06,44,17.30
2010,07,09,06,45,17.40
2010,07,09,06,46,17.40
2010,07,09,06,47,17.50
2010,07,09,06,48,17.50
2010,07,09,06,49,17.60
2010,07,09,06,50,17.70
2010,07,09,06,51,17.70
2010,07,09,06,52,17.80
2010,07,09,06,53,17.80
2010,07,09,06,54,17.80
2010,07,09,06,55,17.80
2010,07,09,06,56,17.80
2010,07,09,06,57,17.90
2010,07,09,06,58,17.90
2010,07,09,06,59,17.90
2010,07,09,07,00,17.90
2010,07,09,07,01,18.00
2010,07,09,07,02,18.10
2010,07,09,07,03,18.10
2010,07,09,07,04,18.20
2010,07,09,07,05,18.20
2010,07,09,07,06,18.20
2010,07,09,07,07,18.30
2010,07,09,07,08,18.30
2010,07,09,07,09,18.40
2010,07,09,07,10,18.40
2010,07,09,07,11,18.50
2010,07,09,07,12,18.50
2010,07,09,07,13,18.60
2010,07,09,07,14,18.60
2010,07,09,07,15,18.70
2010,07,09,07,16,18.80
2010,07,09,07,17,18.90
2010,07,09,07,18,18.90
2010,07,09,07,19,19.00
2010,07,09,07,20,19.10
2010,07,09,07,21,19.10
2010,07,09,07,22,19.20
2010,07,09,07,23,19.30
2010,07,09,07,24,19.40
2010,07,09,07,25,19.50
2010,07,09,07,26,19.50
2010,07,09,07,27,19.60
2010,07,09,07,28,19.70
2010,07,09,07,29,19.80
2010,07,09,07,30,19.90
2010,07,09,07,31,19.90
2010,07,09,07,32,20.00
2010,07,09,07,33,20.10
2010,07,09,07,34,20.20
2010,07,09,07,35,20.20
2010,07,09,07,36,20.20
2010,07,09,07,37,20.30
2010,07,09,07,38,20.40
2010,07,09,07,39,20.50
2010,07,09,07,40,20.50
2010,07,09,07,41,20.60
2010,07,09,07,42,20.60
2010,07,09,07,43,20.70
2010,07,09,07,44,20.80
2010,07,09,07,45,20.90
2010,07,09,07,46,20.90
2010,07,09,07,47,21.00
2010,07,09,07,48,21.10
2010,07,09,07,49,21.20
2010,07,09,07,50,21.30
2010,07,09,07,51,21.30
2010,07,09,07,52,21.30
2010,07,09,07,53,21.40
2010,07,09,07,54,21.50
2010,07,09,07,55,21.60
2010,07,09,07,56,21.70
2010,07,09,07,57,21.80
2010,07,09,07,58,21.90
2010,07,09,07,59,22.00
2010,07,09,08,00,22.20
2010,07,09,08,01,22.30
2010,07,09,08,02,22.40
2010,07,09,08,03,22.50
2010,07,09,08,04,22.60
2010,07,09,08,05,22.70
2010,07,09,08,06,22.80
2010,07,09,08,07,22.80
2010,07,09,08,08,22.90
2010,07,09,08,09,22.90
2010,07,09,08,10,22.90
2010,07,09,08,11,22.90
2010,07,09,08,12,22.90
2010,07,09,08,13,23.00
2010,07,09,08,14,23.10
2010,07,09,08,15,23.30
2010,07,09,08,16,23.40
2010,07,09,08,17,23.60
2010,07,09,08,18,23.70
2010,07,09,08,19,23.70
2010,07,09,08,20,23.80
2010,07,09,08,21,24.00
2010,07,09,08,22,24.10
2010,07,09,08,23,24.20
2010,07,09,08,24,24.30
2010,07,09,08,25,24.40
2010,07,09,08,26,24.50
2010,07,09,08,27,24.70
2010,07,09,08,28,24.80
2010,07,09,08,29,24.90
2010,07,09,08,30,25.00
2010,07,09,08,31,25.10
2010,07,09,08,32,25.20
2010,07,09,08,33,25.20
2010,07,09,08,34,25.00
2010,07,09,08,35,24.60
2010,07,09,08,36,24.20
2010,07,09,08,37,23.90
2010,07,09,08,38,23.60
2010,07,09,08,39,23.30
2010,07,09,08,40,23.10
2010,07,09,08,41,22.90
2010,07,09,08,42,22.80
2010,07,09,08,43,22.70
2010,07,09,08,44,22.50
2010,07,09,08,45,22.30
2010,07,09,08,46,21.90
2010,07,09,08,47,21.50
2010,07,09,08,48,21.30
2010,07,09,08,49,21.20
2010,07,09,08,50,21.10
2010,07,09,08,51,21.10
2010,07,09,08,52,21.00
2010,07,09,08,53,21.00
2010,07,09,08,54,21.00
2010,07,09,08,55,20.90
2010,07,09,08,56,20.80
2010,07,09,08,57,20.80
2010,07,09,08,58,20.70
2010,07,09,08,59,20.60
2010,07,09,09,00,20.60
2010,07,09,09,01,20.60
2010,07,09,09,02,20.70
2010,07,09,09,03,20.80
2010,07,09,09,04,20.80
2010,07,09,09,05,20.80
2010,07,09,09,06,20.70
2010,07,09,09,07,20.70
2010,07,09,09,08,20.60
2010,07,09,09,09,20.50
2010,07,09,09,10,20.40
2010,07,09,09,11,20.20
2010,07,09,09,12,20.00
2010,07,09,09,13,19.80
2010,07,09,09,14,19.60
2010,07,09,09,15,19.40
2010,07,09,09,16,19.30
2010,07,09,09,17,19.10
2010,07,09,09,18,18.90
2010,07,09,09,19,18.90
2010,07,09,09,20,18.90
2010,07,09,09,21,19.10
2010,07,09,09,22,19.10
2010,07,09,09,23,19.10
2010,07,09,09,24,19.10
2010,07,09,09,25,19.20
2010,07,09,09,26,19.40
2010,07,09,09,27,19.50
2010,07,09,09,28,19.50
2010,07,09,09,29,19.50
2010,07,09,09,30,19.40
2010,07,09,09,31,19.40
2010,07,09,09,32,19.40
2010,07,09,09,33,19.50
2010,07,09,09,34,19.60
2010,07,09,09,35,19.60
2010,07,09,09,36,19.80
2010,07,09,09,37,20.00
2010,07,09,09,38,20.20
2010,07,09,09,39,20.30
2010,07,09,09,40,20.40
2010,07,09,09,41,20.40
2010,07,09,09,42,20.30
2010,07,09,09,43,20.30
2010,07,09,09,44,20.40
2010,07,09,09,45,20.50
2010,07,09,09,46,20.50
2010,07,09,09,47,20.60
2010,07,09,09,48,20.60
2010,07,09,09,49,20.60
2010,07,09,09,50,20.70
2010,07,09,09,51,20.80
2010,07,09,09,52,20.90
2010,07,09,09,53,20.90
2010,07,09,09,54,21.00
2010,07,09,09,55,21.00
2010,07,09,09,56,21.10
2010,07,09,09,57,21.20
2010,07,09,09,58,21.20
2010,07,09,09,59,21.30
2010,07,09,10,00,21.20
2010,07,09,10,01,21.20
2010,07,09,10,02,21.20
2010,07,09,10,03,21.30
2010,07,09,10,04,21.30
2010,07,09,10,05,21.30
2010,07,09,10,06,21.40
2010,07,09,10,07,21.50
2010,07,09,10,08,21.70
2010,07,09,10,09,21.90
2010,07,09,10,10,22.00
2010,07,09,10,11,22.20
2010,07,09,10,12,22.20
2010,07,09,10,13,22.20
2010,07,09,10,14,22.20
2010,07,09,10,15,22.30
2010,07,09,10,16,22.30
2010,07,09,10,17,22.30
2010,07,09,10,18,22.50
2010,07,09,10,19,22.50
2010,07,09,10,20,22.60
2010,07,09,10,21,22.60
2010,07,09,10,22,22.70
2010,07,09,10,23,22.80
2010,07,09,10,24,22.80
2010,07,09,10,25,22.80
2010,07,09,10,26,22.90
2010,07,09,10,27,23.00
2010,07,09,10,28,23.10
2010,07,09,10,29,23.10
2010,07,09,10,30,23.20
2010,07,09,10,31,23.10
2010,07,09,10,32,23.10
2010,07,09,10,33,23.10
2010,07,09,10,34,23.30
2010,07,09,10,35,23.30
2010,07,09,10,36,23.40
2010,07,09,10,37,23.50
2010,07,09,10,38,23.60
2010,07,09,10,39,23.60
2010,07,09,10,40,23.70
2010,07,09,10,41,23.80
2010,07,09,10,42,23.70
2010,07,09,10,43,23.60
2010,07,09,10,44,23.60
2010,07,09,10,45,23.50
2010,07,09,10,46,23.40
2010,07,09,10,47,23.40
2010,07,09,10,48,23.50
2010,07,09,10,49,23.70
2010,07,09,10,50,23.80
2010,07,09,10,51,23.80
2010,07,09,10,52,23.80
2010,07,09,10,53,23.70
2010,07,09,10,54,23.60
2010,07,09,10,55,23.70
2010,07,09,10,56,23.70
2010,07,09,10,57,23.70
2010,07,09,10,58,23.70
2010,07,09,10,59,23.80
2010,07,09,11,00,23.90
2010,07,09,11,01,24.00
2010,07,09,11,02,24.10
2010,07,09,11,03,24.30
2010,07,09,11,04,24.30
2010,07,09,11,05,24.30
2010,07,09,11,06,24.10
2010,07,09,11,07,24.20
2010,07,09,11,08,24.20
2010,07,09,11,09,24.20
2010,07,09,11,10,24.10
2010,07,09,11,11,24.00
2010,07,09,11,12,23.80
2010,07,09,11,13,23.80
2010,07,09,11,14,23.70
2010,07,09,11,15,23.80
2010,07,09,11,16,23.90
2010,07,09,11,17,23.90
2010,07,09,11,18,23.90
2010,07,09,11,19,23.90
2010,07,09,11,20,23.90
2010,07,09,11,21,24.00
2010,07,09,11,22,24.10
2010,07,09,11,23,24.10
2010,07,09,11,24,24.20
2010,07,09,11,25,24.30
2010,07,09,11,26,24.40
2010,07,09,11,27,24.50
2010,07,09,11,28,24.50
2010,07,09,11,29,24.50
2010,07,09,11,30,24.30
2010,07,09,11,31,24.30
2010,07,09,11,32,24.20
2010,07,09,11,33,24.10
2010,07,09,11,34,24.10
2010,07,09,11,35,24.10
2010,07,09,11,36,24.10
2010,07,09,11,37,24.10
2010,07,09,11,38,24.10
2010,07,09,11,39,24.10
2010,07,09,11,40,24.10
2010,07,09,11,41,24.10
2010,07,09,11,42,24.10
2010,07,09,11,43,24.20
2010,07,09,11,44,24.30
2010,07,09,11,45,24.40
2010,07,09,11,46,24.40
2010,07,09,11,47,24.30
2010,07,09,11,48,24.40
2010,07,09,11,49,24.40
2010,07,09,11,50,24.30
2010,07,09,11,51,24.20
2010,07,09,11,52,24.30
2010,07,09,11,53,24.40
2010,07,09,11,54,24.40
2010,07,09,11,55,24.40
2010,07,09,11,56,24.40
2010,07,09,11,57,24.40
2010,07,09,11,58,24.30
2010,07,09,11,59,24.20
2010,07,09,12,00,24.30
2010,07,09,12,01,24.30
2010,07,09,12,02,24.40
2010,07,09,12,03,24.50
2010,07,09,12,04,24.50
2010,07,09,12,05,24.60
2010,07,09,12,06,24.60
2010,07,09,12,07,24.60
2010,07,09,12,08,24.60
2010,07,09,12,09,24.50
2010,07,09,12,10,24.40
2010,07,09,12,11,24.40
2010,07,09,12,12,24.50
2010,07,09,12,13,24.50
2010,07,09,12,14,24.50
2010,07,09,12,15,24.60
2010,07,09,12,16,24.70
2010,07,09,12,17,24.60
2010,07,09,12,18,24.60
2010,07,09,12,19,24.70
2010,07,09,12,20,24.80
2010,07,09,12,21,24.90
2010,07,09,12,22,25.10
2010,07,09,12,23,25.10
2010,07,09,12,24,24.90
2010,07,09,12,25,24.90
2010,07,09,12,26,25.00
2010,07,09,12,27,25.00
2010,07,09,12,28,25.10
2010,07,09,12,29,25.00
2010,07,09,12,30,24.90
2010,07,09,12,31,24.80
2010,07,09,12,32,24.80
2010,07,09,12,33,24.80
2010,07,09,12,34,24.80
2010,07,09,12,35,24.80
2010,07,09,12,36,24.80
2010,07,09,12,37,24.80
2010,07,09,12,38,24.80
2010,07,09,12,39,24.80
2010,07,09,12,40,24.80
2010,07,09,12,41,24.70
2010,07,09,12,42,24.60
2010,07,09,12,43,24.70
2010,07,09,12,44,24.80
2010,07,09,12,45,24.80
2010,07,09,12,46,24.80
2010,07,09,12,47,24.80
2010,07,09,12,48,24.80
2010,07,09,12,49,24.70
2010,07,09,12,50,24.80
2010,07,09,12,51,24.80
2010,07,09,12,52,24.70
2010,07,09,12,53,24.80
2010,07,09,12,54,24.90
2010,07,09,12,55,25.00
2010,07,09,12,56,25.00
2010,07,09,12,57,25.00
2010,07,09,12,58,25.00
2010,07,09,12,59,24.90
2010,07,09,13,00,24.90
2010,07,09,13,01,24.80
2010,07,09,13,02,24.70
2010,07,09,13,03,24.70
2010,07,09,13,04,24.70
2010,07,09,13,05,24.70
2010,07,09,13,06,24.70
2010,07,09,13,07,24.70
2010,07,09,13,08,24.80
2010,07,09,13,09,24.80
2010,07,09,13,10,24.70
2010,07,09,13,11,24.60
2010,07,09,13,12,24.60
2010,07,09,13,13,24.70
2010,07,09,13,14,24.80
2010,07,09,13,15,24.90
2010,07,09,13,16,25.00
2010,07,09,13,17,25.10
2010,07,09,13,18,25.30
2010,07,09,13,19,25.30
2010,07,09,13,20,25.20
2010,07,09,13,21,25.20
2010,07,09,13,22,25.30
2010,07,09,13,23,25.40
2010,07,09,13,24,25.60
2010,07,09,13,25,25.80
2010,07,09,13,26,25.70
2010,07,09,13,27,25.60
2010,07,09,13,28,25.40
2010,07,09,13,29,25.30
2010,07,09,13,30,25.20
2010,07,09,13,31,25.10
2010,07,09,13,32,25.00
2010,07,09,13,33,24.90
2010,07,09,13,34,24.90
2010,07,09,13,35,24.80
2010,07,09,13,36,24.70
2010,07,09,13,37,24.60
2010,07,09,13,38,24.60
2010,07,09,13,39,24.60
2010,07,09,13,40,24.60
2010,07,09,13,41,24.70
2010,07,09,13,42,24.80
2010,07,09,13,43,24.80
2010,07,09,13,44,24.90
2010,07,09,13,45,25.10
2010,07,09,13,46,25.20
2010,07,09,13,47,25.30
2010,07,09,13,48,25.40
2010,07,09,13,49,25.50
2010,07,09,13,50,25.60
2010,07,09,13,51,25.60
2010,07,09,13,52,25.70
2010,07,09,13,53,25.80
2010,07,09,13,54,25.70
2010,07,09,13,55,25.50
2010,07,09,13,56,25.40
2010,07,09,13,57,25.30
2010,07,09,13,58,25.30
2010,07,09,13,59,25.20
2010,07,09,14,00,25.20
2010,07,09,14,01,25.30
2010,07,09,14,02,25.40
2010,07,09,14,03,25.50
2010,07,09,14,04,25.50
2010,07,09,14,05,25.60
2010,07,09,14,06,25.60
2010,07,09,14,07,25.50
2010,07,09,14,08,25.50
2010,07,09,14,09,25.50
2010,07,09,14,10,25.50
2010,07,09,14,11,25.40
2010,07,09,14,12,25.40
2010,07,09,14,13,25.40
2010,07,09,14,14,25.50
2010,07,09,14,15,25.40
2010,07,09,14,16,25.30
2010,07,09,14,17,25.20
2010,07,09,14,18,25.10
2010,07,09,14,19,25.10
2010,07,09,14,20,25.20
2010,07,09,14,21,25.30
2010,07,09,14,22,25.30
2010,07,09,14,23,25.30
2010,07,09,14,24,25.40
2010,07,09,14,25,25.30
2010,07,09,14,26,25.30
2010,07,09,14,27,25.30
2010,07,09,14,28,25.40
2010,07,09,14,29,25.30
2010,07,09,14,30,25.30
2010,07,09,14,31,25.40
2010,07,09,14,32,25.40
2010,07,09,14,33,25.50
2010,07,09,14,34,25.60
2010,07,09,14,35,25.60
2010,07,09,14,36,25.60
2010,07,09,14,37,25.50
2010,07,09,14,38,25.50
2010,07,09,14,39,25.60
2010,07,09,14,40,25.70
2010,07,09,14,41,25.90
2010,07,09,14,42,26.10
2010,07,09,14,43,26.20
2010,07,09,14,44,26.30
2010,07,09,14,45,26.30
2010,07,09,14,46,26.30
2010,07,09,14,47,26.20
2010,07,09,14,48,26.00
2010,07,09,14,49,25.90
2010,07,09,14,50,25.70
2010,07,09,14,51,25.60
2010,07,09,14,52,25.50
2010,07,09,14,53,25.60
2010,07,09,14,54,25.60
2010,07,09,14,55,25.60
2010,07,09,14,56,25.70
2010,07,09,14,57,25.70
2010,07,09,14,58,25.70
2010,07,09,14,59,25.70
2010,07,09,15,00,25.70
2010,07,09,15,01,25.80
2010,07,09,15,02,25.90
2010,07,09,15,03,26.10
2010,07,09,15,04,26.20
2010,07,09,15,05,26.20
2010,07,09,15,06,26.10
2010,07,09,15,07,26.00
2010,07,09,15,08,26.00
2010,07,09,15,09,26.00
2010,07,09,15,10,25.90
2010,07,09,15,11,25.80
2010,07,09,15,12,25.70
2010,07,09,15,13,25.80
2010,07,09,15,14,25.90
2010,07,09,15,15,26.00
2010,07,09,15,16,26.10
2010,07,09,15,17,26.20
2010,07,09,15,18,26.30
2010,07,09,15,19,26.30
2010,07,09,15,20,26.30
2010,07,09,15,21,26.30
2010,07,09,15,22,26.30
2010,07,09,15,23,26.30
2010,07,09,15,24,26.30
2010,07,09,15,25,26.30
2010,07,09,15,26,26.40
2010,07,09,15,27,26.40
2010,07,09,15,28,26.40
2010,07,09,15,29,26.40
2010,07,09,15,30,26.40
2010,07,09,15,31,26.30
2010,07,09,15,32,26.20
2010,07,09,15,33,26.20
2010,07,09,15,34,26.20
2010,07,09,15,35,26.30
2010,07,09,15,36,26.30
2010,07,09,15,37,26.40
2010,07,09,15,38,26.40
2010,07,09,15,39,26.40
2010,07,09,15,40,26.10
2010,07,09,15,41,25.80
2010,07,09,15,42,25.60
2010,07,09,15,43,25.40
2010,07,09,15,44,25.30
2010,07,09,15,45,25.20
2010,07,09,15,46,25.10
2010,07,09,15,47,25.20
2010,07,09,15,48,25.30
2010,07,09,15,49,25.30
2010,07,09,15,50,25.30
2010,07,09,15,51,25.30
2010,07,09,15,52,25.30
2010,07,09,15,53,25.30
2010,07,09,15,54,25.50
2010,07,09,15,55,25.60
2010,07,09,15,56,25.60
2010,07,09,15,57,25.60
2010,07,09,15,58,25.70
2010,07,09,15,59,25.70
2010,07,09,16,00,25.60
2010,07,09,16,01,25.50
2010,07,09,16,02,25.40
2010,07,09,16,03,25.30
2010,07,09,16,04,25.20
2010,07,09,16,05,25.20
2010,07,09,16,06,25.20
2010,07,09,16,07,25.10
2010,07,09,16,08,25.10
2010,07,09,16,09,25.10
2010,07,09,16,10,25.10
2010,07,09,16,11,25.00
2010,07,09,16,12,25.00
2010,07,09,16,13,25.10
2010,07,09,16,14,25.20
2010,07,09,16,15,25.20
2010,07,09,16,16,25.20
2010,07,09,16,17,25.20
2010,07,09,16,18,25.10
2010,07,09,16,19,25.10
2010,07,09,16,20,25.00
2010,07,09,16,21,25.00
2010,07,09,16,22,24.90
2010,07,09,16,23,25.00
2010,07,09,16,24,24.90
2010,07,09,16,25,24.90
2010,07,09,16,26,24.80
2010,07,09,16,27,24.90
2010,07,09,16,28,24.90
2010,07,09,16,29,24.90
2010,07,09,16,30,24.80
2010,07,09,16,31,24.60
2010,07,09,16,32,24.40
2010,07,09,16,33,24.20
2010,07,09,16,34,23.90
2010,07,09,16,35,23.40
2010,07,09,16,36,23.20
2010,07,09,16,37,23.10
2010,07,09,16,38,23.00
2010,07,09,16,39,22.90
2010,07,09,16,40,22.80
2010,07,09,16,41,22.80
2010,07,09,16,42,22.70
2010,07,09,16,43,22.60
2010,07,09,16,44,22.60
2010,07,09,16,45,22.50
2010,07,09,16,46,22.40
2010,07,09,16,47,22.20
2010,07,09,16,48,22.00
2010,07,09,16,49,21.80
2010,07,09,16,50,21.50
2010,07,09,16,51,21.30
2010,07,09,16,52,21.00
2010,07,09,16,53,20.90
2010,07,09,16,54,20.80
2010,07,09,16,55,20.80
2010,07,09,16,56,20.80
2010,07,09,16,57,20.70
2010,07,09,16,58,20.70
2010,07,09,16,59,20.60
2010,07,09,17,00,20.60
2010,07,09,17,01,20.50
2010,07,09,17,02,20.50
2010,07,09,17,03,20.60
2010,07,09,17,04,20.60
2010,07,09,17,05,20.60
2010,07,09,17,06,20.50
2010,07,09,17,07,20.50
2010,07,09,17,08,20.40
2010,07,09,17,09,20.30
2010,07,09,17,10,20.10
2010,07,09,17,11,19.90
2010,07,09,17,12,19.80
2010,07,09,17,13,19.70
2010,07,09,17,14,19.60
2010,07,09,17,15,19.50
2010,07,09,17,16,19.40
2010,07,09,17,17,19.20
2010,07,09,17,18,19.10
2010,07,09,17,19,19.00